SP6RGZ-1 Weather Reports


time (UTC)temp
C
wind
direction
speed
KPH
gust
KPH
rain 1hr
cm
rain 24hr
cm
rain mn
cm
humidity
%
barometer
mb
20260905151502 22 0.0 0.0 0.00 0.00 0.00 48 997.1
20260905150002 22 0.0 0.0 0.00 0.00 0.00 48 997.0
20260905144502 22 0.0 0.0 0.00 0.00 0.00 47 997.0
20260905143002 22 0.0 0.0 0.00 0.00 0.00 48 996.9
20260905141502 22 0.0 0.0 0.00 0.00 0.00 48 996.9
20260905140002 23 0.0 0.0 0.00 0.00 0.00 46 997.0
20260905134502 23 0.0 0.0 0.00 0.00 0.00 48 996.9
20260905133003 23 0.0 0.0 0.00 0.00 0.00 48 996.9
20260905131502 23 0.0 0.0 0.00 0.00 0.00 52 996.9
20260905130002 22 0.0 0.0 0.00 0.00 0.00 52 997.0
20260905124502 22 0.0 0.0 0.00 0.00 0.00 51 997.1
20260905123002 22 0.0 0.0 0.00 0.00 0.00 51 997.1
20260905121502 22 0.0 0.0 0.00 0.00 0.00 55 997.4
20260905120002 22 0.0 0.0 0.00 0.00 0.00 51 997.5
20260905114502 22 0.0 0.0 0.00 0.00 0.00 56 997.6
20260905113002 22 0.0 0.0 0.00 0.00 0.00 55 997.5
20260905111501 21 0.0 0.0 0.00 0.00 0.00 56 997.5
20260905110002 22 0.0 0.0 0.00 0.00 0.00 55 997.6
20260905104502 21 0.0 0.0 0.00 0.00 0.00 58 997.4
20260905103002 22 0.0 0.0 0.00 0.00 0.00 56 997.4
20260905101502 22 0.0 0.0 0.00 0.00 0.00 57 997.4
20260905100002 22 0.0 0.0 0.00 0.00 0.00 57 997.2
20260905094502 21 0.0 0.0 0.00 0.00 0.00 59 997.3
20260905093002 21 0.0 0.0 0.00 0.00 0.00 59 997.2
20260905091502 21 0.0 0.0 0.00 0.00 0.00 61 997.3
20260905090002 20 0.0 0.0 0.00 0.00 0.00 65 997.3
20260905084502 21 0.0 0.0 0.00 0.00 0.00 64 996.9
20260905083002 21 0.0 0.0 0.00 0.00 0.00 64 996.9
20260905081502 21 0.0 0.0 0.00 0.00 0.00 65 996.9
20260905080002 20 0.0 0.0 0.00 0.00 0.00 72 996.8
20260905074503 20 0.0 0.0 0.00 0.00 0.00 76 996.5
20260905073002 20 0.0 0.0 0.00 0.00 0.00 75 996.5
20260905071502 19 0.0 0.0 0.00 0.00 0.00 81 996.3
20260905070002 19 0.0 0.0 0.00 0.00 0.00 84 996.1
20260905064502 19 0.0 0.0 0.00 0.00 0.00 85 996.0
20260905063002 18 0.0 0.0 0.00 0.00 0.00 90 995.7
20260905061502 18 0.0 0.0 0.00 0.00 0.00 92 995.8
20260905060002 18 0.0 0.0 0.00 0.00 0.00 95 995.7
20260904203002 19 0.0 0.0 0.00 0.00 0.00 96 991.1
20260904201502 19 0.0 0.0 0.00 0.00 0.00 95 991.2
20260904200002 19 0.0 0.0 0.00 0.00 0.00 95 991.5
20260904194502 22 0.0 0.0 0.00 0.00 0.00 76 991.7
20260904193002 22 0.0 0.0 0.00 0.00 0.00 72 990.0
20260904191502 22 0.0 0.0 0.00 0.00 0.00 69 990.0
20260904190002 23 0.0 0.0 0.00 0.00 0.00 67 989.8
20260904183002 25 0.0 0.0 0.00 0.00 0.00 66 987.8
20260904181502 25 0.0 0.0 0.00 0.00 0.00 67 987.9
20260904180003 25 0.0 0.0 0.00 0.00 0.00 67 987.6
20260904174502 25 0.0 0.0 0.00 0.00 0.00 66 987.8
20260904173002 26 0.0 0.0 0.00 0.00 0.00 65 988.1
20260904171503 26 0.0 0.0 0.00 0.00 0.00 64 988.3
20260904170002 26 0.0 0.0 0.00 0.00 0.00 64 988.6
20260904164502 26 0.0 0.0 0.00 0.00 0.00 64 988.6
20260904163002 26 0.0 0.0 0.00 0.00 0.00 63 988.8
20260904161502 27 0.0 0.0 0.00 0.00 0.00 62 988.9
20260904160002 27 0.0 0.0 0.00 0.00 0.00 62 989.0
20260904154502 27 0.0 0.0 0.00 0.00 0.00 62 989.0
20260904153002 27 0.0 0.0 0.00 0.00 0.00 60 989.0